Temperature
24 26 26 26 26 26 27 27 27 27 27 27 27 28 28 25 24 23 21 21 20 20 19 19 19 19 19 19 19 19 19 19 19 18 17 17 18 18 18 18 18 18 18 17
24 25 25 25 25 25 25 25 26 27 26 27 26 25 24 23 22 21 20 20 20 20 19 19 18 18 18 18 18 18 18 18 18 18 18 18 18 19 19 20 21 20 19 18
24 25 24 24 25 25 25 25 26 25 26 26 26 25 24 22 20 19 18 19 19 19 19 18 17 17 17 17 17 17 17 17 18 18 18 17 17 16 17 19 19 19 20 19
24 24 24 24 25 24 26 25 25 25 25 26 25 25 26 24 22 21 19 19 16 14 15 16 16 15 15 16 15 15 16 17 17 17 16 16 16 16 17 17 18 18 18 18
23 24 23 24 24 24 25 25 25 24 24 25 25 25 27 24 24 22 20 18 16 15 14 15 14 14 14 14 14 14 15 15 16 16 16 15 15 15 16 16 17 18 17 18
24 23 23 24 24 24 24 24 24 24 24 23 24 25 26 26 26 23 19 17 16 15 14 15 15 15 14 14 14 14 14 14 14 14 14 15 14 14 15 16 15 15 16 17
23 23 23 23 23 23 23 22 22 22 23 23 25 25 25 23 22 21 19 17 16 14 14 14 14 14 14 14 14 14 14 14 13 13 13 14 14 14 14 15 14 14 15 15
22 20 23 22 23 22 22 22 20 20 22 23 22 23 24 21 19 18 16 16 15 14 12 13 13 13 13 13 14 14 13 14 14 13 14 14 14 14 13 14 14 14 15 16
24 24 21 22 22 21 19 21 19 19 19 19 22 22 21 20 19 18 17 16 15 13 12 13 13 12 13 13 13 13 13 13 13 13 14 13 13 13 13 14 14 15 15 15
23 21 22 21 21 21 18 19 16 17 18 18 20 20 18 19 19 19 18 17 15 13 12 13 13 12 12 12 13 13 13 13 13 13 13 13 13 13 13 14 14 14 14 14
23 22 21 21 21 21 20 20 20 19 19 18 18 20 20 20 17 16 16 15 14 13 13 13 13 12 12 12 13 13 13 13 13 13 13 13 13 13 13 13 13 13 13 14
22 22 21 22 22 22 21 20 20 18 18 18 17 18 18 17 15 15 14 13 12 13 13 13 12 12 11 11 12 12 12 12 12 12 12 13 13 12 12 13 13 13 13 14
21 21 20 21 19 19 19 21 20 20 19 18 17 18 15 15 14 13 13 13 13 12 12 12 12 11 10 11 11 11 11 12 12 12 12 12 13 13 13 13 13 13 14 14
20 20 19 19 19 17 17 18 19 19 18 18 19 19 16 14 12 10 10 11 12 12 11 11 11 11 10 10 11 11 11 11 12 12 11 12 12 13 13 13 13 14 14 14
20 19 20 20 20 19 18 18 16 15 18 17 18 19 17 14 12 10 8 9 10 11 11 10 10 10 9 9 10 10 10 11 11 11 11 11 11 11 12 12 13 13 13 12
19 19 19 19 19 19 19 19 17 18 18 18 18 18 15 12 10 9 8 8 9 11 10 10 10 9 8 9 9 9 10 10 10 10 10 11 11 11 11 11 11 11 11 10
21 18 18 18 18 18 16 16 17 17 16 16 16 16 14 12 11 10 9 9 10 10 10 10 9 8 8 8 9 9 9 10 10 10 10 10 10 11 10 11 11 10 10 10
18 18 18 18 17 14 16 16 15 15 16 15 15 14 13 11 10 10 9 9 10 10 10 9 9 8 8 8 9 9 9 10 10 10 10 10 10 10 10 10 10 10 10 10
18 18 18 16 16 16 17 16 17 16 16 16 16 14 13 13 12 12 10 10 10 9 8 8 9 8 8 9 9 9 9 9 9 9 9 10 9 9 9 9 10 10 10 10
18 17 18 17 16 15 17 17 16 16 16 17 16 15 14 13 15 14 11 10 9 9 8 8 8 8 8 8 9 9 9 9 9 9 8 9 9 9 9 9 9 9 10 10
19 18 18 17 17 18 18 17 16 16 14 16 15 15 14 14 14 12 11 10 9 9 8 8 8 8 8 8 8 8 8 8 8 8 8 8 8 8 9 9 9 9 10 10
19 18 18 19 16 15 17 16 16 16 15 15 15 15 14 13 12 11 11 10 10 9 9 8 8 8 8 8 8 9 8 8 8 8 8 8 8 8 8 9 9 9 9 8
18 18 19 18 19 17 17 17 16 15 15 15 14 14 13 13 12 12 11 10 10 9 9 8 8 8 8 8 8 8 8 8 7 7 7 7 7 8 8 8 8 9 8 8
19 18 18 18 18 17 16 16 15 15 15 14 14 13 13 13 12 12 11 10 9 9 9 8 8 8 8 8 7 7 7 7 7 7 7 7 7 7 7 7 7 7 7 7
19 18 18 17 18 17 16 16 15 14 14 14 14 14 13 13 12 12 11 10 9 9 9 9 8 8 8 8 8 7 7 7 7 7 7 7 7 7 7 7 7 7 7 7
19 18 18 18 19 18 18 17 15 15 14 14 14 13 13 13 13 12 11 10 10 9 9 8 8 8 8 8 7 7 7 7 8 8 7 7 7 7 7 7 7 7 7 7
Wind_Speed
4 6 6 4 5 8 7 9 10 8 2 7 11 14 11 3 1 3 5 5 6 6 7 7 6 6 7 7 9 10 10 8 6 5 6 4 2 3 5 11 19 18 19 18
7 6 1 3 5 7 9 10 10 5 2 5 6 7 4 3 1 2 3 5 6 8 8 8 7 5 5 5 3 2 4 4 5 6 8 7 6 10 13 13 15 16 17 16
6 2 2 6 6 8 10 12 11 9 7 6 7 11 10 5 4 5 5 6 7 8 10 9 8 6 8 4 1 0 1 1 2 5 7 7 8 9 9 14 14 12 16 14
4 1 4 6 5 6 6 5 7 9 10 10 9 12 12 11 9 7 7 8 10 10 8 8 9 8 7 3 2 2 3 2 2 2 5 9 10 14 18 18 15 11 10 9
3 4 6 9 6 6 6 2 8 10 12 15 14 13 10 11 12 9 7 6 7 8 7 7 8 8 4 2 2 2 3 3 1 1 4 7 12 15 16 16 16 12 9 7
5 2 5 8 7 9 9 9 11 12 13 18 20 19 18 9 11 11 7 6 5 6 6 5 5 4 5 5 4 3 3 1 1 2 4 7 12 17 18 17 15 11 6 5
7 8 6 6 11 11 13 15 13 15 16 17 13 15 13 6 6 6 7 7 6 7 6 6 6 6 6 5 2 2 3 3 2 4 6 8 10 12 8 8 9 5 1 1
7 5 3 2 7 8 9 13 13 12 14 10 4 8 4 7 7 7 6 5 6 8 7 8 8 9 9 9 7 4 1 2 3 6 8 8 8 6 3 3 3 1 1 1
6 4 4 1 2 4 5 5 2 5 10 10 10 8 3 8 7 7 7 6 7 7 6 7 9 10 10 10 9 7 6 9 9 8 8 8 7 5 4 3 4 3 3 2
5 5 6 5 5 3 1 5 2 2 5 8 10 9 7 10 10 9 7 5 6 5 5 5 7 9 10 10 9 8 8 8 8 8 6 4 5 5 6 6 6 5 2 1
7 7 4 7 9 9 8 7 6 4 5 5 8 3 1 2 6 7 4 2 3 2 2 3 5 6 7 8 8 6 3 4 6 6 6 6 6 5 7 6 4 3 3 3
4 6 10 8 3 2 6 7 7 7 9 7 9 6 5 3 7 7 5 3 2 3 4 5 4 5 5 4 5 5 5 4 5 4 3 6 6 7 7 7 6 6 5 4
2 6 12 14 5 2 9 11 10 11 10 11 13 6 6 5 6 7 4 2 1 3 5 5 4 3 3 3 3 3 4 3 5 5 2 4 5 6 6 6 6 5 5 4
4 8 12 17 14 10 15 21 18 15 12 14 17 12 8 10 6 5 6 5 3 3 4 4 3 2 2 3 4 4 4 3 3 3 3 3 4 5 5 5 4 5 5 4
4 11 16 16 14 16 17 19 17 23 14 12 17 13 2 11 9 5 4 3 4 4 3 3 4 3 3 4 3 4 5 3 3 2 2 2 2 5 5 5 5 5 5 5
4 8 9 14 12 13 17 16 14 16 10 11 14 7 8 9 7 6 5 5 6 5 4 4 5 4 1 3 3 3 3 5 4 1 2 3 2 3 5 4 4 4 5 6
5 8 9 9 7 10 9 6 11 11 7 8 10 2 10 11 9 8 7 7 6 5 3 2 4 5 3 2 1 2 3 4 4 4 3 3 2 1 2 2 2 3 3 4
8 8 7 8 11 9 2 2 6 8 6 4 2 3 8 9 8 8 8 8 6 4 2 1 1 1 3 3 3 4 5 1 2 3 4 4 5 6 5 3 3 2 2 3
5 8 8 6 9 11 3 3 4 5 6 5 5 7 8 8 8 8 9 8 5 3 1 2 3 1 4 4 4 3 4 4 3 2 1 1 1 4 5 5 4 4 4 5
5 7 8 11 10 9 3 2 1 4 5 4 6 6 7 7 8 6 10 8 6 4 2 3 3 2 3 3 1 2 4 2 1 1 1 1 1 3 4 2 1 1 2 4
5 7 8 9 8 5 4 3 3 5 2 2 3 6 8 7 3 5 6 6 4 3 1 1 2 4 3 3 2 1 2 3 4 5 2 2 2 1 4 6 6 4 3 2
6 5 4 4 5 2 3 3 5 4 4 4 4 6 6 3 2 3 4 4 4 4 3 3 4 5 4 3 3 3 3 5 5 5 4 3 3 5 4 1 3 3 3 3
4 3 4 5 6 3 4 7 5 6 6 4 5 6 6 6 4 4 4 4 4 4 4 4 6 7 6 6 6 4 4 4 5 6 6 6 5 6 7 7 5 4 5 6
7 7 6 7 7 6 8 9 8 7 6 7 8 8 7 7 6 5 3 4 4 4 4 5 7 6 5 6 7 5 5 5 6 6 6 5 7 8 7 8 7 5 6 8
10 3 10 13 13 9 10 12 11 10 9 10 9 9 8 7 6 5 4 4 4 4 4 4 4 4 5 4 7 6 6 7 7 7 7 6 6 6 5 8 7 5 5 6
14 13 14 13 10 7 8 10 13 14 13 13 12 11 10 8 7 6 6 6 6 6 6 5 4 5 6 6 7 8 6 3 2 2 6 6 6 6 5 6 7 3 3 2
Wind_Direction
179 239 231 233 246 292 299 250 226 220 123 227 228 237 243 315 297 126 139 153 155 166 163 161 166 179 172 174 186 195 199 198 201 217 231 216 144 174 257 273 276 263 256 252
214 218 187 248 238 240 236 244 238 203 212 236 194 211 219 240 210 94 134 158 164 159 157 156 144 133 132 136 152 188 218 209 214 227 223 220 208 229 231 226 238 230 236 238
266 88 193 215 212 226 222 235 234 232 213 238 242 226 193 171 162 136 118 120 116 111 106 105 108 111 106 100 125 246 334 317 276 263 260 252 231 239 239 248 254 240 222 211
242 151 241 226 225 257 235 225 257 248 251 243 225 256 204 175 170 156 133 118 102 89 88 93 92 74 56 40 7 23 38 31 343 291 241 229 229 235 236 237 242 248 249 228
191 199 231 246 245 246 270 239 250 255 258 263 251 255 238 180 188 163 141 122 103 100 97 102 106 103 88 80 69 86 110 98 62 282 272 256 259 255 252 253 245 239 257 268
254 234 258 267 260 250 254 240 242 249 252 251 247 251 256 214 198 151 143 127 119 105 107 99 83 98 108 120 146 163 154 92 20 310 295 281 276 267 255 248 240 232 248 289
220 219 220 245 253 225 231 235 241 235 231 243 240 239 254 91 97 135 142 123 103 81 70 64 52 39 37 45 59 198 241 291 299 310 328 318 306 287 259 236 225 228 265 301
276 230 198 220 257 263 236 245 249 257 260 260 187 240 246 105 114 125 122 114 102 83 65 57 44 37 27 23 15 8 22 5 5 344 358 356 352 326 284 227 193 139 86 60
271 239 121 4 267 255 225 239 272 272 264 266 256 260 221 155 145 148 140 130 96 76 66 58 51 44 34 30 29 22 30 26 18 20 19 10 15 351 337 12 85 98 101 147
271 252 172 157 171 157 31 123 145 232 271 260 237 230 227 191 182 170 152 117 95 95 69 40 43 42 37 36 43 38 44 33 12 1 9 27 37 19 36 50 61 67 78 77
272 264 200 183 224 205 173 212 219 212 234 271 281 249 57 192 145 144 131 95 79 73 61 37 30 30 39 41 40 32 47 29 352 348 2 8 42 72 83 80 68 76 69 65
250 271 266 244 202 280 275 262 254 251 250 244 274 288 79 103 117 134 129 82 53 18 24 15 2 2 13 24 32 16 3 11 2 346 31 30 27 58 85 102 111 102 98 98
278 270 275 262 224 313 288 246 234 254 268 265 260 255 132 169 137 109 92 77 30 356 357 355 349 349 336 335 343 353 357 4 357 342 50 92 85 78 71 64 63 81 91 93
286 275 277 285 297 298 298 296 298 277 258 267 267 266 176 181 164 116 73 21 336 328 333 333 316 301 310 306 324 333 344 347 345 350 356 52 106 107 95 92 92 91 82 65
283 286 290 289 279 267 263 265 269 279 277 274 281 291 193 168 170 146 97 78 307 297 300 306 296 296 325 330 326 339 333 330 326 337 7 27 91 125 105 82 83 94 93 84
291 287 294 286 283 289 288 289 280 271 284 286 284 289 108 133 148 147 153 193 227 243 260 271 277 270 258 307 329 23 15 24 11 65 64 14 3 136 116 104 108 119 113 101
301 299 293 299 321 294 283 293 299 301 324 296 290 294 145 151 165 165 180 211 216 238 229 281 307 286 253 225 229 104 88 53 17 10 32 40 356 302 140 112 93 105 111 90
277 277 282 289 298 294 315 262 263 275 264 250 260 171 164 177 185 183 195 216 215 206 185 0 349 266 234 215 201 159 156 113 346 12 30 20 22 28 35 66 63 56 74 51
249 273 289 289 298 301 268 226 252 284 284 204 207 186 193 185 192 209 204 207 204 196 185 329 13 32 197 209 211 191 178 211 228 216 167 53 61 102 75 41 20 6 22 44
222 252 270 283 294 302 25 126 208 290 274 154 191 194 188 195 233 180 170 186 192 188 201 279 7 71 150 166 193 204 206 224 287 317 133 112 65 143 151 157 271 335 1 28
262 264 270 284 287 295 58 144 201 261 35 95 211 199 195 223 15 84 138 166 179 187 185 262 84 104 103 76 2 340 10 35 44 29 29 53 2 217 203 208 224 229 218 30
281 284 271 277 282 287 120 206 241 330 349 318 243 198 194 199 134 147 155 169 190 200 187 186 138 140 140 139 118 103 71 49 61 70 65 66 10 351 32 59 205 194 136 83
254 267 319 288 304 327 238 250 275 292 291 261 199 178 177 176 179 174 179 188 194 207 204 190 166 165 167 171 164 133 96 88 82 71 61 59 52 32 35 45 58 82 93 73
241 220 248 267 262 253 241 234 232 242 243 196 181 173 181 181 174 175 184 185 187 196 199 180 168 177 148 159 165 154 140 148 135 117 102 89 85 69 51 50 29 41 62 73
284 248 262 268 269 263 243 229 217 207 198 189 191 184 184 182 175 177 169 167 162 166 174 178 174 163 122 128 153 159 153 150 142 147 154 141 123 127 106 80 68 59 65 71
262 253 259 266 278 255 264 217 208 202 199 196 197 198 193 194 184 177 169 164 162 158 159 165 168 166 157 147 138 141 149 157 110 165 137 145 163 163 140 123 129 144 111 182
Height
1508 1506 1501 1498 1499 1498 1497 1497 1496 1494 1496 1499 1499 1497 1495 1504 1507 1509 1512 1513 1515 1517 1519 1521 1523 1525 1527 1528 1530 1532 1534 1536 1539 1541 1543 1543 1542 1542 1550 1550 1546 1544 1545 1550
1507 1505 1505 1506 1505 1503 1504 1504 1499 1496 1498 1499 1501 1503 1506 1508 1508 1510 1512 1513 1515 1517 1519 1520 1521 1524 1525 1526 1528 1529 1531 1532 1533 1534 1535 1536 1534 1531 1530 1530 1534 1533 1533 1539
1506 1503 1506 1505 1503 1503 1502 1502 1500 1500 1498 1497 1499 1502 1502 1507 1510 1512 1513 1514 1515 1516 1518 1520 1521 1523 1522 1524 1525 1526 1527 1527 1527 1527 1528 1527 1526 1524 1523 1523 1522 1525 1526 1528
1505 1507 1506 1504 1503 1504 1499 1500 1500 1502 1504 1498 1499 1505 1491 1498 1504 1509 1512 1514 1516 1516 1518 1520 1521 1521 1520 1520 1522 1522 1521 1521 1522 1522 1521 1520 1518 1516 1514 1514 1516 1519 1521 1524
1504 1505 1506 1506 1503 1505 1500 1501 1502 1503 1505 1502 1497 1504 1488 1493 1497 1504 1511 1514 1515 1517 1518 1520 1521 1520 1518 1518 1519 1519 1518 1518 1519 1519 1518 1516 1513 1511 1509 1508 1509 1512 1517 1519
1502 1507 1506 1503 1503 1505 1503 1504 1504 1504 1505 1511 1498 1498 1490 1483 1485 1498 1510 1514 1515 1516 1518 1519 1520 1521 1520 1519 1518 1518 1518 1518 1517 1516 1515 1512 1508 1504 1501 1502 1503 1504 1508 1512
1503 1503 1503 1505 1502 1501 1503 1507 1511 1510 1505 1500 1487 1491 1487 1492 1496 1500 1508 1513 1515 1516 1517 1517 1518 1518 1518 1517 1517 1517 1517 1516 1515 1514 1512 1508 1503 1497 1496 1498 1500 1503 1506 1511
1504 1513 1500 1502 1501 1500 1502 1504 1515 1516 1506 1493 1497 1495 1491 1497 1502 1507 1511 1513 1514 1515 1516 1516 1515 1514 1514 1513 1513 1515 1516 1516 1514 1511 1509 1505 1502 1498 1498 1498 1499 1503 1505 1508
1498 1497 1503 1504 1504 1504 1511 1507 1512 1518 1515 1515 1498 1492 1497 1499 1504 1507 1510 1512 1514 1516 1516 1517 1516 1514 1513 1512 1512 1513 1515 1514 1512 1509 1506 1503 1501 1499 1500 1500 1501 1504 1504 1506
1496 1504 1499 1503 1505 1506 1511 1511 1528 1524 1522 1518 1501 1502 1510 1497 1501 1504 1507 1510 1514 1516 1516 1517 1516 1515 1513 1512 1511 1511 1513 1513 1511 1509 1507 1503 1500 1500 1501 1501 1501 1502 1504 1506
1498 1502 1500 1502 1501 1497 1506 1508 1508 1513 1514 1519 1514 1497 1494 1492 1501 1507 1511 1513 1515 1516 1515 1516 1516 1516 1514 1512 1512 1513 1513 1512 1511 1510 1507 1504 1502 1502 1504 1502 1502 1502 1504 1506
1500 1500 1498 1492 1493 1492 1494 1496 1500 1512 1512 1512 1517 1507 1501 1503 1507 1509 1512 1515 1517 1517 1516 1516 1516 1515 1515 1514 1514 1514 1513 1512 1511 1511 1508 1505 1504 1505 1506 1505 1504 1503 1503 1503
1502 1502 1505 1497 1503 1505 1502 1493 1492 1494 1500 1505 1510 1507 1508 1510 1510 1511 1513 1515 1516 1517 1517 1517 1517 1516 1515 1515 1515 1514 1513 1511 1510 1510 1510 1508 1507 1506 1506 1506 1505 1504 1504 1504
1506 1503 1505 1507 1502 1508 1510 1500 1495 1492 1495 1495 1492 1490 1500 1507 1515 1515 1513 1516 1517 1517 1517 1517 1517 1516 1515 1515 1514 1513 1512 1511 1510 1510 1510 1511 1510 1508 1507 1506 1505 1504 1504 1504
1504 1502 1496 1492 1493 1496 1495 1495 1499 1505 1485 1493 1490 1486 1493 1502 1512 1515 1515 1513 1516 1517 1517 1517 1516 1515 1513 1513 1511 1511 1510 1510 1509 1509 1510 1510 1511 1509 1507 1507 1506 1506 1505 1505
1503 1501 1500 1497 1492 1491 1489 1486 1490 1487 1482 1486 1485 1486 1497 1507 1513 1514 1514 1515 1515 1516 1516 1516 1515 1513 1511 1510 1510 1509 1508 1508 1508 1509 1509 1509 1510 1510 1509 1508 1509 1509 1509 1509
1503 1501 1501 1496 1493 1496 1500 1496 1492 1489 1488 1492 1491 1494 1500 1508 1511 1511 1512 1513 1513 1514 1514 1513 1512 1510 1509 1508 1508 1508 1507 1508 1508 1509 1510 1510 1510 1511 1511 1511 1511 1511 1511 1511
1503 1502 1499 1497 1498 1509 1501 1496 1496 1495 1491 1492 1495 1498 1503 1506 1508 1509 1509 1511 1512 1512 1512 1511 1510 1507 1506 1506 1507 1508 1508 1509 1509 1509 1509 1508 1508 1509 1509 1510 1511 1512 1513 1513
1504 1501 1495 1501 1498 1496 1490 1492 1493 1491 1487 1489 1493 1498 1501 1502 1506 1506 1507 1509 1511 1510 1510 1510 1507 1506 1504 1505 1507 1507 1508 1509 1509 1508 1508 1508 1508 1508 1508 1508 1509 1510 1511 1513
1501 1500 1498 1494 1499 1502 1491 1491 1493 1494 1488 1488 1492 1495 1498 1501 1498 1497 1502 1506 1507 1507 1507 1507 1506 1504 1503 1504 1505 1506 1507 1508 1509 1508 1508 1508 1508 1507 1507 1507 1508 1510 1511 1512
1493 1494 1493 1493 1493 1486 1488 1492 1495 1494 1496 1491 1492 1494 1497 1498 1498 1501 1502 1504 1505 1506 1505 1504 1504 1502 1503 1503 1505 1506 1507 1508 1507 1506 1506 1507 1508 1508 1508 1508 1509 1509 1510 1510
1491 1489 1486 1484 1491 1499 1491 1494 1495 1492 1492 1492 1492 1493 1496 1498 1500 1501 1502 1503 1504 1504 1504 1503 1503 1502 1503 1504 1504 1505 1506 1506 1506 1505 1506 1507 1508 1509 1509 1508 1508 1509 1509 1509
1490 1488 1486 1485 1484 1487 1488 1489 1490 1491 1491 1491 1492 1493 1495 1498 1500 1501 1502 1503 1503 1503 1503 1502 1502 1502 1503 1503 1504 1505 1506 1505 1505 1506 1506 1507 1507 1509 1508 1508 1508 1509 1509 1509
1482 1486 1487 1484 1482 1483 1485 1486 1487 1489 1490 1490 1491 1493 1495 1497 1499 1500 1501 1501 1502 1502 1502 1502 1503 1503 1504 1504 1504 1505 1505 1505 1505 1505 1506 1507 1507 1508 1509 1508 1508 1509 1510 1510
1480 1486 1482 1479 1478 1479 1480 1481 1483 1485 1486 1488 1490 1492 1494 1495 1497 1498 1499 1500 1501 1502 1502 1503 1504 1504 1504 1504 1505 1506 1507 1508 1508 1508 1508 1507 1508 1508 1508 1508 1509 1510 1511 1512
1475 1475 1474 1471 1470 1472 1472 1474 1478 1481 1483 1485 1487 1490 1492 1494 1495 1497 1498 1499 1500 1501 1502 1503 1504 1505 1505 1506 1507 1508 1509 1510 1510 1510 1510 1510 1510 1510 1510 1510 1511 1513 1513 1513